Weather History for Las Vegas, NM

Change the Weather History Date:

Friday, August 23, 2013

  Actual Average Record
Temperature  
Mean Temperature 65 °F -  
Max Temperature 82 °F 78 °F 91 °F (2007)
Min Temperature 48 °F 51 °F 40 °F (1974)
Growing Degree Days 15 (Base 50)    
Moisture  
Dew Point 42 °F    
Average Humidity 43    
Maximum Humidity 74    
Minimum Humidity 23    
Precipitation  
Precipitation 0.00 in - - ()
Sea Level Pressure  
Sea Level Pressure 30.00 in    
Wind  
Wind Speed 10 mph (SSW)    
Max Wind Speed 23 mph    
Max Gust Speed 30 mph    
Visibility 10 miles    
Events Thunderstorm    
Averages and records for this station are not official NWS values.
T = Trace of Precipitation, MM = Missing Value Source: NWS Daily Summary

Daily Weather History Graph

Daily Weather History Graph

Search for Another Location

Airport:

Trip Planner

Search our weather history database for the weather conditions in past years. The results will help you decide how hot, cold, wet, or windy it might be!

Date:

Astronomy

Aug. 23, 2013 Rise Set
Actual Time 6:26 AM MDT 7:39 PM MDT
Civil Twilight 5:59 AM MDT 8:06 PM MDT
Nautical Twilight 5:27 AM MDT 8:37 PM MDT
Astronomical Twilight 4:54 AM MDT 9:10 PM MDT
Moon 9:09 PM MDT (8/23) 9:15 AM MDT (8/23)
Length of Visible Light 14h 06m
Length of Day
13h 13m
Waning Gibbous, 91% of the Moon is Illuminated
Aug 23
Waning Gibbous
Aug 28
Last Quarter
Sep 5
New
Sep 12
First Quarter
Sep 19
Full

Hourly Weather History & Observations

Time (MDT) Temp. Dew Point Humidity Pressure Visibility Wind Dir Wind Speed Gust Speed Precip Events Conditions
12:53 AM 60.1 °F 35.1 °F 39% 29.99 in 10.0 mi SW 12.7 mph - N/A   Clear
1:53 AM 59.0 °F 34.0 °F 39% 29.99 in 10.0 mi SW 9.2 mph - N/A   Clear
2:53 AM 59.0 °F 35.1 °F 41% 29.97 in 10.0 mi West 4.6 mph - N/A   Clear
3:53 AM 59.0 °F 34.0 °F 39% 29.97 in 10.0 mi West 5.8 mph - N/A   Clear
4:53 AM 60.1 °F 36.0 °F 41% 29.95 in 10.0 mi West 5.8 mph - N/A   Clear
5:53 AM 48.9 °F 37.0 °F 64% 30.00 in 10.0 mi Calm Calm - N/A   Clear
6:53 AM 51.1 °F 36.0 °F 56% 30.01 in 10.0 mi Calm Calm - N/A   Clear
7:53 AM 55.9 °F 37.9 °F 51% 30.03 in 10.0 mi ENE 5.8 mph - N/A   Clear
8:53 AM 68.0 °F 41.0 °F 37% 30.01 in 10.0 mi SSW 6.9 mph - N/A   Clear
9:53 AM 73.0 °F 45.0 °F 37% 30.01 in 10.0 mi SSW 9.2 mph - N/A   Clear
10:53 AM 75.0 °F 43.0 °F 32% 30.02 in 10.0 mi SSW 9.2 mph 17.3 mph N/A   Clear
11:53 AM 77.0 °F 39.0 °F 25% 30.01 in 10.0 mi SSE 15.0 mph 24.2 mph N/A   Partly Cloudy
12:53 PM 77.0 °F 39.9 °F 26% 29.98 in 10.0 mi South 13.8 mph 25.3 mph N/A   Clear
1:53 PM 80.1 °F 39.0 °F 23% 29.95 in 10.0 mi South 8.1 mph 23.0 mph N/A   Clear
2:53 PM 82.0 °F 41.0 °F 23% 29.91 in 10.0 mi South 16.1 mph 28.8 mph N/A   Clear
3:53 PM 80.1 °F 43.0 °F 27% 29.90 in 10.0 mi South 18.4 mph 25.3 mph N/A   Scattered Clouds
4:30 PM 78.8 °F 44.6 °F 30% 30.23 in 10.0 mi SE 13.8 mph 21.9 mph N/A Thunderstorm Clear
4:45 PM 77.0 °F 44.6 °F 32% 30.23 in 10.0 mi South 20.7 mph 26.5 mph N/A   Clear
4:53 PM 80.1 °F 46.0 °F 30% 29.89 in 10.0 mi SSE 18.4 mph 26.5 mph N/A   Partly Cloudy
5:43 PM 71.6 °F 48.2 °F 43% 30.24 in 10.0 mi SSW 20.7 mph 29.9 mph N/A   Mostly Cloudy
5:53 PM 70.0 °F 48.9 °F 47% 29.98 in 10.0 mi SSW 23.0 mph 29.9 mph N/A   Mostly Cloudy
6:53 PM 68.0 °F 48.0 °F 49% 29.96 in 10.0 mi SW 11.5 mph - N/A   Clear
7:53 PM 64.9 °F 48.0 °F 54% 29.96 in 10.0 mi South 10.4 mph - N/A   Clear
8:53 PM 63.0 °F 50.0 °F 63% 29.95 in 10.0 mi South 9.2 mph - N/A   Clear
9:53 PM 60.1 °F 50.0 °F 69% 29.97 in 10.0 mi South 8.1 mph - N/A   Clear
10:53 PM 59.0 °F 50.0 °F 72% 29.97 in 10.0 mi South 8.1 mph - N/A   Clear
11:53 PM 57.0 °F 48.9 °F 74% 29.98 in 10.0 mi South 8.1 mph - N/A   Clear